Location: *
(42.0175°N, 9.4056°E)
Time: 04:02:43
(UTC+00:00)

Cosmos 1697 Rocket - Pass Details

Date: 25 August 2019
Orbit: 831 x 845 km, 71.0° (Epoch: 17 September)

Event Time Altitude Azimuth Distance (km) Brightness Sun altitude
Rises 21:17:28 0° 324° (NW) 3,412 7.1 -29.8°
Reaches altitude 10° 21:20:18 10° 311° (NW) 2,472 6.0 -30.2°
Maximum altitude 21:24:49 25° 258° (WSW) 1,638 4.3 -30.6°
Enters shadow 21:25:33 24° 246° (WSW) 1,665 4.3 -30.7°
